Location: Luxembourg
(49.6117°N, 6.1300°E)
Time: 15:23:18
(UTC+01:00)

Tiangong - Visible Passes

Search period start: 04 December 2021 00:00
Search period end: 14 December 2021 00:00
Orbit: 380 x 384 km, 41.5° (Epoch: 04 December)

Date Brightness Start Highest point End Pass type
(mag) Time Alt. Az. Time Alt. Az. Time Alt. Az.
11 Dec 3.4 18:39:29 10° SSW 18:41:25 15° SSE 18:41:29 15° SSE visible
12 Dec 3.7 17:39:44 10° S 17:41:03 12° SSE 17:42:22 10° SE visible
12 Dec 3.8 19:14:49 10° SW 19:15:54 15° SSW 19:15:54 15° SSW visible
13 Dec 3.3 18:14:29 10° SW 18:16:42 18° S 18:18:09 14° SE visible
